Starlink 11180

operational
NORAD ID: 60185 Int'l Des: 2024-124 Owner: SPXS Country: US Constellation: starlink
LEOCIRCULAR

Über Starlink 11180

Beschreibung wird geladen...

Live-Position

3D-Globus wird geladen...

Nächste Überflüge

Höhenverlauf

Altitude vs Time

uPlot chart will show altitude changes over time

Zweizeiliger Elementsatz

1 60185U 24124C 26036.96268424 -.00002632 00000-0 -16876-4 0 9998
2 60185 53.1569 317.4586 0001344 113.6380 246.4779 15.69701737 91554
Epoch: 5. Feb. 2026 • Age: 11 hours

Aktueller Status

Höhe 364.9 km
Geschwindigkeit 7.70 km/s
Subsatellitenpunkt 50.17°N, 90.25°E
Startdatum 3. Juli 2024
Alter 1.5 years
Typ internet

Technische Details

Klassifizierung Payload
Masse 960.00 kg
Trockenmasse 910.00 kg
Gesamtmasse 960.00 kg
Länge 0.30 m
Durchmesser 4.10 m
Spannweite 29.00 m
Form Box + pan
Hersteller SPXS
Bus-Typ Starlink V2MD
Phasenstatus In Orbit
Besitzer/Staat SPXS/US

Große Konstellationen

Loading constellations...